Tracking 30922 objects as of 2-Jul-2025
HD Live streaming from Space Station
objects crossing your sky now

COSMOS 2251 DEB

Track COSMOS 2251 DEB now!
10-day predictions


NORAD ID: 36052
Int'l Code: 1993-036AXP
Perigee: 530.5 km
Apogee: 549.9 km
Inclination: 74.0 °
Period: 95.3 minutes
Semi major axis: 6911 km
RCS: 0.0013 m2 (small)
Launch date: June 16, 1993
Source: Commonwealth of Independent States (former USSR) (CIS)
Launch site: PLESETSK MISSILE AND SPACE COMPLEX (PKMTR)

Note: This is SATELLITE DEBRIS
Your satellite tracking list
YAOGAN-31 F
Track 1 satellite(s)




NASA's NSSDC Master Catalog

Two Line Element Set (TLE):
1 36052U 93036AXP 25181.38870380  .00046130  00000-0  27375-2 0  9991
2 36052  74.0069 330.9002 0014076  96.4358 263.8438 15.11028070840667
Source of the keplerian elements: AFSPC